Weather History for Barter Island, AK

Change the Weather History Date:

Saturday, May 3, 2014

  Actual Average Record
Temperature  
Mean Temperature 31 °F -  
Max Temperature 32 °F 18 °F 37 °F (2002)
Min Temperature 28 °F 7 °F -7 °F (2013)
Degree Days  
Heating Degree Days 34    
Moisture  
Dew Point 30 °F    
Average Humidity 92    
Maximum Humidity 100    
Minimum Humidity 87    
Precipitation  
Precipitation 0.00 in - - ()
Sea Level Pressure  
Sea Level Pressure 30.12 in    
Wind  
Wind Speed 13 mph (East)    
Max Wind Speed 20 mph    
Max Gust Speed -    
Visibility 6 miles    
Events Fog    
Averages and records for this station are not official NWS values.
T = Trace of Precipitation, MM = Missing Value Source: NWS Daily Summary

Daily Weather History Graph

Daily Weather History Graph

Search for Another Location

Airport:

Trip Planner

Search our weather history database for the weather conditions in past years. The results will help you decide how hot, cold, wet, or windy it might be!

Date:

Astronomy

May. 03, 2014 Rise Set
Actual Time 3:49 AM AKDT 11:18 PM AKDT
Civil Twilight 2:03 AM AKDT Sun does not rise
Nautical Twilight Sun does not rise Sun does not rise
Astronomical Twilight Sun does not rise Sun does not rise
Moon 6:36 AM AKDT (5/3) 3:34 AM AKDT (5/3)
Length of Visible Light 24h 00m
Length of Day
19h 28m
Waxing Crescent, 21% of the Moon is Illuminated
May 3
Waxing Crescent
May 6
First Quarter
May 14
Full
May 21
Last Quarter
May 28
New

Hourly Weather History & Observations

Time (AKDT) Temp. Windchill Dew Point Humidity Pressure Visibility Wind Dir Wind Speed Gust Speed Precip Events Conditions
12:01 AM 28.9 °F 19.2 °F 28.0 °F 96% 30.40 in 10.0 mi East 11.5 mph - N/A   Clear
1:01 AM 28.9 °F 19.2 °F 27.0 °F 92% 30.38 in 10.0 mi East 11.5 mph - N/A   Clear
2:01 AM 28.0 °F 18.6 °F 27.0 °F 96% 30.36 in 10.0 mi East 10.4 mph - N/A   Clear
3:01 AM 28.0 °F 17.0 °F 27.0 °F 96% 30.34 in 10.0 mi East 13.8 mph - N/A   Clear
4:01 AM 28.9 °F 18.2 °F 28.0 °F 96% 30.32 in 10.0 mi East 13.8 mph - N/A   Clear
5:01 AM 28.9 °F 19.8 °F 27.0 °F 92% 30.30 in 10.0 mi East 10.4 mph - N/A   Clear
6:01 AM 28.0 °F 18.1 °F 26.1 °F 92% 30.27 in 10.0 mi East 11.5 mph - N/A   Clear
7:01 AM 28.9 °F 18.2 °F 27.0 °F 92% 30.25 in 10.0 mi East 13.8 mph - N/A   Clear
8:01 AM 30.0 °F 19.5 °F 28.0 °F 92% 30.23 in 10.0 mi East 13.8 mph - N/A   Clear
8:48 AM 30.2 °F 18.9 °F 30.2 °F 100% 30.21 in 8.0 mi East 16.1 mph - N/A   Scattered Clouds
8:57 AM 32.0 °F 20.8 °F 30.2 °F 93% 30.21 in 8.0 mi East 17.3 mph - N/A   Mostly Cloudy
9:01 AM 32.0 °F 21.6 °F 30.0 °F 92% 30.21 in 8.0 mi East 15.0 mph - N/A   Mostly Cloudy
9:49 AM 33.8 °F 23.5 °F 30.2 °F 87% 30.19 in 10.0 mi East 16.1 mph - N/A   Mostly Cloudy
10:01 AM 33.1 °F 21.9 °F 30.9 °F 92% 30.19 in 10.0 mi East 18.4 mph - N/A   Overcast
11:01 AM 34.0 °F 22.7 °F 30.9 °F 89% 30.17 in 10.0 mi East 19.6 mph - N/A   Overcast
12:01 PM 34.0 °F 24.2 °F 32.0 °F 92% 30.15 in 9.0 mi East 15.0 mph - N/A   Overcast
1:01 PM 34.0 °F 23.4 °F 32.0 °F 92% 30.14 in 10.0 mi East 17.3 mph - N/A   Overcast
2:01 PM 34.0 °F 23.8 °F 32.0 °F 92% 30.11 in 10.0 mi East 16.1 mph - N/A   Overcast
3:01 PM 34.0 °F 24.2 °F 32.0 °F 92% 30.09 in 9.0 mi East 15.0 mph - N/A   Overcast
3:32 PM 33.8 °F 23.9 °F 32.0 °F 93% 30.08 in 8.0 mi ESE 15.0 mph - N/A   Overcast
4:01 PM 34.0 °F 23.8 °F 32.0 °F 92% 30.06 in 6.0 mi ESE 16.1 mph - N/A   Overcast
4:32 PM 33.8 °F 23.9 °F 32.0 °F 93% 30.05 in 1.8 mi ESE 15.0 mph - N/A   Mist
4:37 PM 33.8 °F 24.3 °F 32.0 °F 93% 30.04 in 0.8 mi ESE 13.8 mph - N/A   Mist
4:49 PM 33.8 °F 24.3 °F 32.0 °F 93% 30.03 in 1.0 mi ESE 13.8 mph - N/A   Overcast
5:01 PM 33.1 °F 23.4 °F 30.9 °F 92% 30.03 in 1.0 mi ESE 13.8 mph - N/A   Overcast
5:08 PM 33.8 °F 24.3 °F 30.2 °F 87% 30.03 in 0.8 mi ESE 13.8 mph - N/A   Overcast
5:15 PM 33.8 °F 24.3 °F 30.2 °F 87% 30.02 in 0.2 mi East 13.8 mph - N/A Fog Fog
5:52 PM 33.8 °F 23.9 °F 30.2 °F 87% 30.00 in 0.5 mi East 15.0 mph - N/A Fog Fog
6:01 PM 33.1 °F 22.6 °F 30.9 °F 92% 29.99 in 0.5 mi East 16.1 mph - N/A Fog Fog
6:27 PM 33.8 °F 23.9 °F 30.2 °F 87% 29.98 in 0.2 mi East 15.0 mph - N/A Fog Fog
6:47 PM 33.8 °F 24.3 °F 30.2 °F 87% 29.97 in 0.2 mi East 13.8 mph - N/A Fog Fog
7:20 PM 32.0 °F 24.2 °F 30.2 °F 93% 29.96 in 0.2 mi East 9.2 mph - N/A Fog Fog
7:40 PM 32.0 °F 24.8 °F 30.2 °F 93% 29.95 in 0.2 mi East 8.1 mph - N/A Fog Fog
8:01 PM 32.0 °F 24.8 °F 30.9 °F 96% 29.95 in 0.2 mi East 8.1 mph - N/A Fog Fog
9:01 PM 32.0 °F 27.5 °F 30.9 °F 96% 29.92 in 0.2 mi East 4.6 mph - N/A Fog Fog
10:01 PM 32.0 °F 27.5 °F 30.9 °F 96% 29.91 in 0.2 mi East 4.6 mph - N/A Fog Fog
11:01 PM 32.0 °F - 30.9 °F 96% 29.89 in 0.2 mi Calm Calm - N/A Fog Fog